Location: Arroyo Grande
(40.2671°N, 4.2512°W)
Time: 19:26:06
(UTC+00:00)

Cosmos 1825 - Pass Details

Date: 03 February 2023
Orbit: 481 x 488 km, 82.5° (Epoch: 21 March)

Event Time Altitude Azimuth Distance (km) Brightness Sun altitude
Rises 18:12:14 0° 168° (SSE) 2,564 5.8 -7.1°
Maximum altitude 18:17:50 36° 92° (E) 808 2.7 -8.1°
Drops below altitude 10° 18:21:16 10° 25° (NNE) 1,705 4.5 -8.8°
Sets 18:23:30 0° 17° (NNE) 2,594 5.5 -9.2°
